Regional Weather Roundup
Issued by NWS

Home | Current Version | Previous Version | Text Only | Print | Product List | Glossary On
Versions: 1 2 3 4 5 6 7 8 9 10 11 12 13 14 15 16 17 18 19 20 21 22 23 24 25 26 27 28 29 30 31 32 33 34 35 36 37 38 39 40 41 42 43 44 45 46 47 48 49 50
000
ASUS46 KSEW 271910
RWRWA

WASHINGTON REGIONAL WEATHER ROUNDUP
NATIONAL WEATHER SERVICE SEATTLE WA
1200 PM PDT TUE JUN 27 2017

NOTE:"FAIR" INDICATES FEW OR NO CLOUDS BELOW 12,000 FEET WITH NO
SIGNIFICANT WEATHER AND/OR OBSTRUCTIONS TO VISIBILITY.

WAZ507-509-555>559-272000-
SEATTLE, TACOMA, EVERETT, AND VICINITY

CITY           SKY/WX    TMP DP  RH WIND       PRES   REMARKS
EVERETT        CLOUDY    59  50  72 S9        30.07S
BOEING FIELD   CLOUDY    61  52  72 VRB7      30.07R
RENTON         CLOUDY    62  50  64 S7        30.07R
SEATAC AIRPORT CLOUDY    59  49  69 SW8       30.07S
JBLM-MCCHORD   CLOUDY    61  52  71 W7        30.07S
PUYALLUP       CLOUDY    63  50  63 W5        30.07S
BREMERTON      CLOUDY    58  50  75 VRB5      30.07S
JBLM-FT LEWIS  CLOUDY    61  52  73 S8        30.06S
TACOMA NARROWS CLOUDY    59  50  72 SW5       30.08S
$$

WAZ001-503-506-510-514-515-272000-
NORTH INTERIOR

CITY           SKY/WX    TMP DP  RH WIND       PRES   REMARKS
BELLINGHAM     SUNNY     63  53  70 S10G17    30.04S
FRIDAY HARBOR  MOSUNNY   60  54  80 SE8       30.06S
EASTSOUND      SUNNY     61  54  77 NW6       30.05S
PORT ANGELES   SUNNY     59  52  77 NE8       30.05S
EDIZ HOOK      FAIR      58  51  79 NE7       30.05S
PORT TOWNSEND  CLOUDY    61  54  77 SE9       30.05S
NAS WHIDBEY    CLOUDY    62  50  64 NW6       30.09S
ARLINGTON      CLOUDY    61  52  72 S6        30.07R
BURLINGTON     CLOUDY    63  54  72 VRB5      30.06R
$$

WAZ020-022-039-040-504-511-512-272000-
SOUTHWEST INTERIOR

CITY           SKY/WX    TMP DP  RH WIND       PRES   REMARKS
SHELTON        NOT AVBL
OLYMPIA        CLOUDY    59  49  69 VRB3      30.07S
CHEHALIS       PTSUNNY   64  50  59 CALM      30.07S
KELSO          CLOUDY    62  48  60 VRB3      30.07F
VANCOUVER      CLOUDY    65  53  65 N7        30.06S
SCAPPOOSE, OR  CLOUDY    64  51  62 N5        30.05F
PORTLAND, OR   CLOUDY    63  50  62 VRB5      30.06S
$$

WAZ021-516-517-272000-
WASHINGTON COAST

CITY           SKY/WX    TMP DP  RH WIND       PRES   REMARKS
FORKS          MOSUNNY   64  52  64 S13       30.03S
HOQUIAM        CLOUDY    62  52  69 SW8       30.06S
ASTORIA, OR    CLOUDY    61  49  64 W6        30.06S
$$

WAZ019-023-024-040-567>569-272000-
CASCADE MOUNTAINS AND COLUMBIA GORGE

CITY           SKY/WX    TMP DP  RH WIND       PRES   REMARKS
STAMPEDE PASS  MOSUNNY   60  47  61 VRB5      30.04R
TROUTDALE, OR  CLOUDY    65  51  60 VRB6      30.05F
HOOD RIVER, OR CLEAR     70  50  49 W14G21    29.96F
THE DALLES, OR SUNNY     75  52  44 NW22G31   29.90F
$$

WAZ026-027-041>044-520-521-272000-
EAST SLOPES

CITY           SKY/WX    TMP DP  RH WIND       PRES   REMARKS
OMAK           SUNNY     79  36  21 N14G22    29.88F
WENATCHEE      SUNNY     79  38  22 W8        29.87S
ELLENSBURG     SUNNY     80  42  25 NW14      29.90S
YAKIMA         SUNNY     83  34  17 S7        29.88S
SUNNYSIDE ARPT PTCLDY    77  41  27 E5        29.87S
YAKIMA TC      FAIR      81  33  17 N6        29.86
$$

WAZ028-034-035-272000-
COLUMBIA BASIN

CITY           SKY/WX    TMP DP  RH WIND       PRES   REMARKS
EPHRATA        MOSUNNY   83  25  12 VRB6      29.86S
MOSES LAKE     MOSUNNY   84  29  13 VRB3      29.86S
PASCO          MOSUNNY   80  47  31 S5        29.87F
RICHLAND ARPT  PTCLDY    82  47  29 SE8       29.87S
HERMISTON, OR  SUNNY     80  46  30 W8        29.88S
$$

WAZ036>038-272000-
NORTHEAST WASHINGTON

CITY           SKY/WX    TMP DP  RH WIND       PRES   REMARKS
SPOKANE GEIGER PTSUNNY   73  49  42 W8        29.90S
SPOKANE FELTS  SUNNY     75  50  41 VRB6      29.89S
FAIRCHILD AFB  SUNNY     73  49  43 CALM      29.90S
COEURDALENE,ID NOT AVBL
DEER PARK      MOSUNNY   73  49  42 VRB5      29.89S
$$

WAZ029>033-272000-
SOUTHEAST WASHINGTON

CITY           SKY/WX    TMP DP  RH WIND       PRES   REMARKS
PULLMAN        SUNNY     73  47  39 W14       29.94S
LEWISTON, ID   SUNNY     80  45  28 VRB3      29.87S
WALLA WALLA    SUNNY     78  48  34 SW12      29.91S
PENDLETON, OR  SUNNY     77  47  34 W13       29.91S
$$



USA.gov is the U.S. government's official web portal to all federal, state and local government web resources and services.